Andalusia, AL

4:34 PM CDT on August 23, 2016 (GMT -0500)
Andalusia

Weather History for K79J - June, 2013

Change the Weather History Date:

Saturday, June 1, 2013

  Actual Average (KCEW) Record (KCEW)
Temperature  
Mean Temperature 79 °F -  
Max Temperature 86 °F 89 °F 102 °F (2011)
Min Temperature 72 °F 65 °F 62 °F (1980)
Cooling Degree Days 14    
Growing Degree Days 29 (Base 50)    
Moisture  
Dew Point 70 °F    
Average Humidity 76    
Maximum Humidity 87    
Minimum Humidity 57    
Precipitation  
Precipitation 0.33 in - - ()
Sea Level Pressure  
Sea Level Pressure 30.01 in    
Wind  
Wind Speed 3 mph (SSE)    
Max Wind Speed 8 mph    
Max Gust Speed -    
Visibility 10 miles    
Events Rain , Thunderstorm    
Averages and records for this station are not official NWS values.
T = Trace of Precipitation, MM = Missing Value Source: NWS Daily Summary

Daily Weather History Graph

Daily Weather History Graph

Search for Another Location

Airport or City:

Trip Planner

Search our weather history database for the weather conditions in past years. The results will help you decide how hot, cold, wet, or windy it might be!

Date:

Astronomy

Jun. 01, 2013 Rise Set
Actual Time 5:41 AM CDT 7:45 PM CDT
Civil Twilight 5:14 AM CDT 8:12 PM CDT
Nautical Twilight 4:40 AM CDT 8:46 PM CDT
Astronomical Twilight 4:05 AM CDT 9:22 PM CDT
Moon 1:13 AM CDT (6/1) 1:36 PM CDT (6/1)
Length of Visible Light 14h 58m
Length of Day
14h 03m
Last Quarter, 40% of the Moon is Illuminated
Jun 1
Last Quarter
Jun 8
New
Jun 16
First Quarter
Jun 23
Full
Jun 29
Last Quarter

Hourly Weather History & Observations

Time (CDT) Temp. Heat Index Dew Point Humidity Pressure Visibility Wind Dir Wind Speed Gust Speed Precip Events Conditions
12:56 AM 73.0 °F - 68.0 °F 84% 30.01 in 9.0 mi Calm Calm - N/A   Clear
1:56 AM 73.0 °F - 68.0 °F 84% 30.02 in 10.0 mi Calm Calm - N/A   Scattered Clouds
2:56 AM 72.0 °F - 68.0 °F 87% 30.02 in 8.0 mi Calm Calm - N/A   Partly Cloudy
3:56 AM 73.0 °F - 69.1 °F 87% 30.02 in 10.0 mi Calm Calm - N/A   Overcast
4:31 AM 73.4 °F - 68.0 °F 83% 30.03 in 10.0 mi SE 3.5 mph - N/A   Scattered Clouds
4:56 AM 73.0 °F - 68.0 °F 84% 30.01 in 10.0 mi SE 4.6 mph - N/A   Partly Cloudy
5:56 AM 73.0 °F - 66.9 °F 81% 30.02 in 10.0 mi SE 3.5 mph - N/A   Mostly Cloudy
6:56 AM 75.0 °F - 68.0 °F 79% 30.02 in 10.0 mi SE 5.8 mph - N/A   Clear
7:56 AM 77.0 °F - 69.1 °F 76% 30.03 in 10.0 mi Variable 5.8 mph - N/A   Overcast
8:56 AM 80.1 °F 83.2 °F 70.0 °F 71% 30.04 in 10.0 mi Variable 6.9 mph - N/A   Overcast
9:56 AM 82.9 °F 87.0 °F 70.0 °F 65% 30.03 in 10.0 mi Variable 5.8 mph - N/A   Overcast
11:04 AM 82.4 °F 86.3 °F 69.8 °F 66% 30.04 in 10.0 mi South 4.6 mph - N/A   Overcast
11:56 AM 86.0 °F 90.1 °F 69.1 °F 57% 30.02 in 10.0 mi Variable 5.8 mph - N/A   Overcast
12:56 PM 80.1 °F 83.6 °F 71.1 °F 74% 30.03 in 10.0 mi Variable 4.6 mph - 0.02 in Rain Light Rain
1:56 PM 84.9 °F 90.1 °F 71.1 °F 63% 30.01 in 10.0 mi South 4.6 mph - 0.01 in   Mostly Cloudy
2:21 PM 80.6 °F 85.4 °F 73.4 °F 79% 30.03 in 9.0 mi Calm Calm - 0.02 in Rain , Thunderstorm Light Thunderstorms and Rain
2:39 PM 84.2 °F 90.9 °F 73.4 °F 70% 30.02 in 10.0 mi South 4.6 mph - 0.02 in   Mostly Cloudy
2:56 PM 84.9 °F 90.7 °F 72.0 °F 65% 30.00 in 10.0 mi SSE 5.8 mph - 0.02 in   Partly Cloudy
3:56 PM 86.0 °F 92.2 °F 72.0 °F 63% 29.98 in 10.0 mi SSE 8.1 mph - N/A   Overcast
4:25 PM 77.0 °F - 71.6 °F 83% 29.98 in 3.0 mi East 8.1 mph - 0.28 in Rain Rain
4:56 PM 81.0 °F 85.8 °F 73.0 °F 77% 29.96 in 10.0 mi Calm Calm - 0.28 in   Partly Cloudy
5:56 PM 82.9 °F 90.2 °F 75.0 °F 77% 29.96 in 10.0 mi Calm Calm - N/A   Scattered Clouds
6:56 PM 82.0 °F 87.4 °F 73.0 °F 74% 29.95 in 10.0 mi Calm Calm - N/A   Partly Cloudy
7:56 PM 80.1 °F 83.8 °F 72.0 °F 76% 29.96 in 10.0 mi Calm Calm - N/A   Clear
8:56 PM 77.0 °F - 71.1 °F 82% 29.99 in 10.0 mi Calm Calm - N/A   Mostly Cloudy
9:56 PM 79.0 °F - 69.1 °F 72% 30.00 in 10.0 mi Calm Calm - N/A   Mostly Cloudy
10:56 PM 75.9 °F - 69.1 °F 79% 30.00 in 10.0 mi SSE 3.5 mph - N/A   Partly Cloudy
11:56 PM 75.0 °F - 69.1 °F 82% 29.98 in 10.0 mi SSW 3.5 mph - N/A   Clear